Location: Unspecified
(48.8656°N, 0.0000°E)
Time: 04:31:32
(UTC+00:00)

Vanguard 1 Rocket - Pass Details

Date: 28 June 2019
Orbit: 652 x 4224 km, 34.3° (Epoch: 16 August)

Event Time Altitude Azimuth Distance (km) Brightness Sun altitude
Rises 17:32:59 0° 253° (WSW) 7,969 13.2 22.2°
Reaches altitude 10° 17:39:24 10° 248° (WSW) 6,509 12.8 21.1°
Maximum altitude 17:56:10 42° 186° (S) 2,957 10.1 18.4°
Drops below altitude 10° 18:05:23 10° 119° (ESE) 3,667 10.0 17.0°
Sets 18:07:55 0° 112° (ESE) 4,315 10.2 16.6°
